Latest Coastal Weather Observations for Broome Port

IDW60701

Issued at 10:13 pm WST Sunday 22 January 2017 (issued every 10 minutes, with the page automatically refreshed every 10 minutes)

About coastal observations | Map of coastal stations | Coastal observations for WA | Marine services | Other Formats
Station Details ID: 003102 Name: BROOME NTC AWS Lat: -18.00 Lon: 122.22 Height: 0.0 m
Data from the previous 72 hours. | See also: Recent months for locations in Western Australia
Date/Time
WST
Temp
°C
Wind Pressure Rain since
9am
mm
Weather Cloud Vis
km
Sea
Height
m
Swell
Dir  Spd
kts
Gust
kts
hPa Trend Height
m
Period
s
Dir
22/10:00pm 28.5 NW 11 15 1007.3 - - - - - - - - -
22/09:30pm 28.5 NW 11 14 1007.3 - - - - - - - - -
22/09:00pm 28.6 WNW 10 14 1007.3 - - - - - - - - -
22/08:30pm 28.6 WNW 10 13 1007.2 - - - - - - - - -
22/08:00pm 28.6 WNW 9 12 1007.0 - - - - - - - - -
22/07:30pm 28.7 WNW 9 13 1006.9 - - - - - - - - -
22/07:00pm 28.8 WNW 11 14 1006.7 - - - - - - - - -
22/06:30pm 28.8 WNW 12 14 1006.2 - - - - - - - - -
22/06:00pm 28.8 WNW 11 14 1005.9 - - - - - - - - -
22/05:30pm 29.1 WNW 12 15 1005.7 - - - - - - - - -
22/05:00pm 28.9 WNW 12 15 1005.8 - - - - - - - - -
22/04:30pm 29.2 WNW 12 16 1005.6 - - - - - - - - -
22/04:00pm 29.2 WNW 11 14 1005.7 - - - - - - - - -
22/03:30pm 29.3 W 11 14 1005.8 - - - - - - - - -
22/03:00pm 29.4 W 11 15 1006.0 - - - - - - - - -
22/02:30pm 29.4 W 11 14 1006.4 - - - - - - - - -
22/02:00pm 29.1 WNW 11 16 1006.7 - - - - - - - - -
22/01:30pm 29.1 WNW 12 14 1007.1 - - - - - - - - -
22/01:00pm 29.1 W 11 14 1007.3 - - - - - - - - -
22/12:30pm 29.0 WNW 11 15 1007.7 - - - - - - - - -
22/12:00pm 28.9 W 11 15 1008.0 - - - - - - - - -
22/11:30am 29.1 WNW 12 14 1008.0 - - - - - - - - -
22/11:00am 28.9 WNW 12 15 1008.4 - - - - - - - - -
22/10:30am 28.9 W 12 16 1008.6 - - - - - - - - -
22/10:00am 29.1 W 11 15 1008.6 - - - - - - - - -
22/09:30am 29.0 W 12 16 1008.5 - - - - - - - - -
22/09:00am 29.0 WNW 12 14 1008.6 - - - - - - - - -
22/08:30am 28.8 WNW 13 16 1008.5 - - - - - - - - -
22/08:00am 28.9 WNW 12 15 1008.5 - - - - - - - - -
22/07:30am 28.9 WNW 12 15 1008.4 - - - - - - - - -
22/07:00am 28.8 WNW 13 16 1008.4 - - - - - - - - -
22/06:30am 28.7 WNW 11 14 1008.3 - - - - - - - - -
22/06:00am 28.7 WNW 12 15 1008.1 - - - - - - - - -
22/05:30am 28.6 W 11 14 1007.7 - - - - - - - - -
22/05:00am 28.6 WNW 12 15 1007.4 - - - - - - - - -
22/04:30am 28.6 WNW 10 15 1007.1 - - - - - - - - -
22/04:00am 28.5 WNW 11 14 1007.0 - - - - - - - - -
22/03:30am 28.6 WNW 12 14 1007.0 - - - - - - - - -
22/03:00am 28.6 NW 11 13 1006.9 - - - - - - - - -
22/02:30am 28.6 WNW 12 15 1006.9 - - - - - - - - -
22/02:00am 28.6 WNW 10 12 1006.9 - - - - - - - - -
22/01:30am 28.7 NW 9 13 1007.0 - - - - - - - - -
22/01:00am 28.8 NW 11 14 1007.4 - - - - - - - - -
22/12:30am 28.8 WNW 12 16 1007.8 - - - - - - - - -
22/12:00am 28.9 WNW 11 15 1008.0 - - - - - - - - -
 
Date/Time
WST
Temp
°C
Wind Pressure Rain since
9am
mm
Weather Cloud Vis
km
Sea
Height
m
Swell
Dir  Spd
kts
Gust
kts
hPa Trend Height
m
Period
s
Dir
21/11:30pm 28.9 WNW 10 13 1008.0 - - - - - - - - -
21/11:00pm 28.9 WNW 11 14 1008.0 - - - - - - - - -
21/10:30pm 29.0 WNW 10 13 1008.1 - - - - - - - - -
21/10:00pm 29.1 WNW 10 13 1008.2 - - - - - - - - -
21/09:30pm 29.1 WNW 10 12 1008.1 - - - - - - - - -
21/09:00pm 29.1 WNW 11 15 1007.8 - - - - - - - - -
21/08:30pm 29.1 WNW 9 11 1007.5 - - - - - - - - -
21/08:00pm 29.1 NW 10 13 1007.2 - - - - - - - - -
21/07:30pm 29.1 WNW 10 12 1007.1 - - - - - - - - -
21/07:00pm 29.1 WNW 9 13 1006.9 - - - - - - - - -
21/06:30pm 29.1 NW 10 12 1006.4 - - - - - - - - -
21/06:00pm 29.2 NW 10 11 1006.1 - - - - - - - - -
21/05:30pm 29.1 WNW 12 15 1005.8 - - - - - - - - -
21/05:00pm 29.1 WNW 11 14 1005.5 - - - - - - - - -
21/04:30pm 29.5 NW 11 14 1005.3 - - - - - - - - -
21/04:00pm 29.3 NW 12 15 1005.3 - - - - - - - - -
21/03:30pm 29.4 NW 13 16 1005.3 - - - - - - - - -
21/03:00pm 29.4 NW 14 17 1005.3 - - - - - - - - -
21/02:30pm 29.3 NW 14 18 1005.7 - - - - - - - - -
21/02:00pm 29.5 WNW 14 18 1005.8 - - - - - - - - -
21/01:30pm 29.6 WNW 14 18 1006.0 - - - - - - - - -
21/01:00pm 29.6 NW 14 19 1006.2 - - - - - - - - -
21/12:30pm 29.6 NW 14 18 1006.3 - - - - - - - - -
21/12:00pm 29.5 NW 15 17 1006.5 - - - - - - - - -
21/11:30am 29.1 NW 15 18 1006.7 - - - - - - - - -
21/11:00am 29.5 NW 15 19 1006.8 - - - - - - - - -
21/10:30am 29.3 NW 16 19 1007.0 - - - - - - - - -
21/10:00am 29.4 NW 17 20 1006.9 - - - - - - - - -
21/09:30am 29.3 NW 16 20 1007.0 - - - - - - - - -
21/09:00am 29.3 NNW 16 20 1006.8 - - - - - - - - -
21/08:30am 28.9 NNW 14 18 1006.8 - - - - - - - - -
21/08:00am 28.6 NNW 14 17 1006.7 - - - - - - - - -
21/07:30am 28.6 NW 13 16 1006.3 - - - - - - - - -
21/07:00am 28.5 NNW 13 17 1006.3 - - - - - - - - -
21/06:30am 29.0 NW 11 15 1006.1 - - - - - - - - -
21/06:00am 28.9 WNW 13 15 1005.9 - - - - - - - - -
21/05:30am 28.8 WNW 14 17 1005.6 - - - - - - - - -
21/05:00am 28.9 WNW 15 20 1005.3 - - - - - - - - -
21/04:30am 28.7 WNW 15 19 1005.1 - - - - - - - - -
21/04:00am 28.3 NW 13 17 1005.2 - - - - - - - - -
21/03:30am 28.8 WNW 15 19 1005.2 - - - - - - - - -
21/03:00am 28.0 NW 14 19 1005.2 - - - - - - - - -
21/02:30am 28.5 WNW 16 20 1005.2 - - - - - - - - -
21/02:26am 28.4 WNW 16 20 1005.2 - - - - - - - - -
21/02:00am 27.6 W 20 26 1005.1 - - - - - - - - -
21/01:55am 27.4 W 20 26 1005.2 - - - - - - - - -
21/01:30am 28.9 WNW 15 20 1005.1 - - - - - - - - -
21/01:00am 28.8 WNW 15 19 1005.2 - - - - - - - - -
21/12:30am 28.9 WNW 18 22 1005.4 - - - - - - - - -
21/12:00am 28.8 NW 15 20 1005.6 - - - - - - - - -
 
Date/Time
WST
Temp
°C
Wind Pressure Rain since
9am
mm
Weather Cloud Vis
km
Sea
Height
m
Swell
Dir  Spd
kts
Gust
kts
hPa Trend Height
m
Period
s
Dir
20/11:30pm 28.8 NW 16 21 1005.6 - - - - - - - - -
20/11:00pm 28.8 WNW 17 22 1005.9 - - - - - - - - -
20/10:30pm 28.9 WNW 15 18 1006.0 - - - - - - - - -
20/10:00pm 28.9 WNW 17 22 1005.9 - - - - - - - - -
20/09:30pm 28.9 WNW 16 20 1005.7 - - - - - - - - -
20/09:00pm 28.9 WNW 16 20 1005.4 - - - - - - - - -
20/08:30pm 28.9 WNW 17 20 1005.0 - - - - - - - - -
20/08:00pm 28.9 WNW 18 22 1004.7 - - - - - - - - -
20/07:30pm 29.0 NW 15 19 1004.2 - - - - - - - - -
20/07:00pm 29.0 NW 15 19 1003.9 - - - - - - - - -
20/06:30pm 28.9 NW 14 18 1003.6 - - - - - - - - -
20/06:00pm 28.9 NW 14 19 1003.3 - - - - - - - - -
20/05:30pm 29.2 NW 16 19 1003.1 - - - - - - - - -
20/05:00pm 29.3 NW 15 19 1002.7 - - - - - - - - -
20/04:30pm 29.4 WNW 15 19 1002.7 - - - - - - - - -
20/04:00pm 29.5 WNW 16 20 1002.7 - - - - - - - - -
20/03:30pm 29.4 WNW 16 19 1002.7 - - - - - - - - -
20/03:00pm 29.3 NW 16 20 1002.9 - - - - - - - - -
20/02:30pm 29.4 NW 16 20 1003.1 - - - - - - - - -
20/02:00pm 29.1 NW 17 21 1003.1 - - - - - - - - -
20/01:30pm 29.2 NW 16 19 1003.3 - - - - - - - - -
20/01:00pm 29.2 NW 15 19 1003.6 - - - - - - - - -
20/12:30pm 29.3 NW 15 17 1003.9 - - - - - - - - -
20/12:00pm 29.3 NW 15 18 1004.3 - - - - - - - - -
20/11:30am 29.2 NW 15 19 1004.7 - - - - - - - - -
20/11:00am 29.1 NW 16 19 1005.0 - - - - - - - - -
20/10:30am 29.1 WNW 16 20 1005.0 - - - - - - - - -
20/10:00am 29.2 NW 13 17 1005.1 - - - - - - - - -
20/09:30am 29.3 WNW 14 17 1005.1 - - - - - - - - -
20/09:00am 29.1 NW 14 18 1005.1 - - - - - - - - -
20/08:30am 29.2 NW 14 17 1004.8 - - - - - - - - -
20/08:00am 29.0 NW 13 16 1004.5 - - - - - - - - -
20/07:30am 28.9 NW 13 17 1004.1 - - - - - - - - -
20/07:00am 28.8 NW 12 15 1003.7 - - - - - - - - -
20/06:30am 28.8 NW 12 15 1003.4 - - - - - - - - -
20/06:00am 28.5 NW 10 13 1003.3 - - - - - - - - -
20/05:30am 28.6 NW 11 14 1002.9 - - - - - - - - -
20/05:00am 28.6 WNW 10 13 1002.7 - - - - - - - - -
20/04:30am 28.7 WNW 12 14 1002.8 - - - - - - - - -
20/04:00am 28.6 WNW 12 15 1002.8 - - - - - - - - -
20/03:30am 28.6 WNW 12 15 1002.7 - - - - - - - - -
20/03:00am 28.7 WNW 13 17 1002.8 - - - - - - - - -
20/02:30am 28.7 WNW 15 18 1002.9 - - - - - - - - -
20/02:00am 28.7 WNW 15 19 1003.0 - - - - - - - - -
20/01:30am 28.7 WNW 14 18 1003.2 - - - - - - - - -
20/01:00am 28.8 WNW 13 17 1003.2 - - - - - - - - -
20/12:30am 28.7 WNW 13 15 1003.3 - - - - - - - - -
20/12:00am 28.7 NW 14 18 1003.6 - - - - - - - - -
 
Date/Time
WST
Temp
°C
Wind Pressure Rain since
9am
mm
Weather Cloud Vis
km
Sea
Height
m
Swell
Dir  Spd
kts
Gust
kts
hPa Trend Height
m
Period
s
Dir
19/11:30pm 28.8 NW 12 16 1004.2 - - - - - - - - -
19/11:00pm 28.8 NW 11 14 1004.6 - - - - - - - - -
19/10:30pm 28.9 NW 12 15 1004.8 - - - - - - - - -

Other Formats:

Comma delimited format used in spreadsheet applications
http://www.bom.gov.au/fwo/IDW60701/IDW60701.95202.axf

JavaScript Object Notation format (JSON) in row-major order
http://www.bom.gov.au/fwo/IDW60701/IDW60701.95202.json